TimeCDT,TemperatureF,Dew PointF,Humidity,Sea Level PressureIn,VisibilityMPH,Wind Direction,Wind SpeedMPH,Gust SpeedMPH,PrecipitationIn,Events,Conditions,WindDirDegrees,DateUTC
12:15 AM,82.4,60.8,48,29.81,10.0,South,27.6,39.1,N/A,,Clear,170,2013-06-25 05:15:00
12:35 AM,82.4,59.0,45,29.82,10.0,South,28.8,36.8,N/A,,Clear,170,2013-06-25 05:35:00
12:55 AM,82.4,59.0,45,29.82,10.0,South,29.9,38.0,N/A,,Clear,180,2013-06-25 05:55:00
1:15 AM,82.4,59.0,45,29.82,10.0,South,28.8,41.4,N/A,,Clear,180,2013-06-25 06:15:00
1:35 AM,82.4,59.0,45,29.82,10.0,South,31.1,39.1,N/A,,Clear,180,2013-06-25 06:35:00
1:55 AM,80.6,59.0,48,29.82,10.0,South,27.6,35.7,N/A,,Clear,190,2013-06-25 06:55:00
2:15 AM,80.6,59.0,48,29.84,10.0,SSW,19.6,32.2,N/A,,Clear,200,2013-06-25 07:15:00
2:35 AM,80.6,59.0,48,29.84,10.0,SSW,19.6,25.3,N/A,,Clear,200,2013-06-25 07:35:00
2:55 AM,78.8,59.0,51,29.83,10.0,SSW,16.1,21.9,N/A,,Clear,210,2013-06-25 07:55:00
3:15 AM,78.8,59.0,51,29.83,10.0,SSW,19.6,27.6,N/A,,Clear,210,2013-06-25 08:15:00
3:35 AM,78.8,59.0,51,29.82,10.0,SSW,21.9,28.8,N/A,,Clear,200,2013-06-25 08:35:00
3:55 AM,78.8,59.0,51,29.82,10.0,SSW,18.4,26.5,N/A,,Clear,200,2013-06-25 08:55:00
4:15 AM,78.8,59.0,51,29.81,10.0,SSW,20.7,34.5,N/A,,Clear,200,2013-06-25 09:15:00
4:35 AM,78.8,59.0,51,29.82,10.0,SW,20.7,31.1,N/A,,Clear,220,2013-06-25 09:35:00
4:55 AM,78.8,60.8,54,29.81,10.0,SW,19.6,27.6,N/A,,Clear,220,2013-06-25 09:55:00
5:15 AM,77.0,60.8,57,29.82,10.0,SSW,23.0,27.6,N/A,,Clear,210,2013-06-25 10:15:00
5:35 AM,77.0,60.8,57,29.83,10.0,SW,19.6,25.3,N/A,,Clear,230,2013-06-25 10:35:00
5:55 AM,77.0,60.8,57,29.83,10.0,SW,20.7,27.6,N/A,,Clear,230,2013-06-25 10:55:00
6:15 AM,77.0,60.8,57,29.84,10.0,SW,18.4,27.6,N/A,,Clear,220,2013-06-25 11:15:00
6:35 AM,75.2,60.8,61,29.85,10.0,SW,12.7,-,N/A,,Clear,220,2013-06-25 11:35:00
6:55 AM,75.2,60.8,61,29.86,10.0,SW,16.1,-,N/A,,Clear,220,2013-06-25 11:55:00
7:15 AM,75.2,60.8,61,29.86,10.0,SW,19.6,24.2,N/A,,Clear,220,2013-06-25 12:15:00
7:35 AM,77.0,60.8,57,29.86,10.0,SW,16.1,24.2,N/A,,Clear,220,2013-06-25 12:35:00
7:55 AM,77.0,60.8,57,29.86,10.0,SSW,21.9,26.5,N/A,,Clear,210,2013-06-25 12:55:00
8:15 AM,77.0,60.8,57,29.86,10.0,SW,20.7,32.2,N/A,,Clear,220,2013-06-25 13:15:00
8:35 AM,78.8,60.8,54,29.86,10.0,SW,23.0,29.9,N/A,,Clear,220,2013-06-25 13:35:00
8:55 AM,78.8,60.8,54,29.86,10.0,SW,19.6,33.4,N/A,,Clear,220,2013-06-25 13:55:00
9:15 AM,78.8,60.8,54,29.87,10.0,SW,21.9,33.4,N/A,,Clear,220,2013-06-25 14:15:00
9:35 AM,78.8,60.8,54,29.87,10.0,SW,23.0,29.9,N/A,,Clear,220,2013-06-25 14:35:00
9:55 AM,82.4,60.8,48,29.87,10.0,SW,24.2,29.9,N/A,,Clear,220,2013-06-25 14:55:00
10:15 AM,84.2,60.8,45,29.87,10.0,SW,19.6,25.3,N/A,,Clear,220,2013-06-25 15:15:00
10:35 AM,86.0,60.8,43,29.86,10.0,SW,17.3,23.0,N/A,,Clear,230,2013-06-25 15:35:00
10:55 AM,87.8,59.0,38,29.85,10.0,WSW,20.7,25.3,N/A,,Clear,240,2013-06-25 15:55:00
11:15 AM,87.8,55.4,33,29.85,10.0,WSW,17.3,24.2,N/A,,Clear,240,2013-06-25 16:15:00
11:35 AM,89.6,53.6,29,29.85,10.0,SW,17.3,24.2,N/A,,Clear,230,2013-06-25 16:35:00
11:55 AM,91.4,51.8,26,29.85,10.0,SW,15.0,21.9,N/A,,Clear,230,2013-06-25 16:55:00
12:15 PM,93.2,51.8,24,29.86,10.0,WSW,16.1,23.0,N/A,,Clear,240,2013-06-25 17:15:00
12:35 PM,95.0,50.0,22,29.86,10.0,WSW,12.7,19.6,N/A,,Clear,240,2013-06-25 17:35:00
12:55 PM,96.8,48.2,19,29.85,10.0,SW,13.8,21.9,N/A,,Clear,230,2013-06-25 17:55:00
1:15 PM,96.8,44.6,17,29.84,10.0,SSW,16.1,-,N/A,,Clear,200,2013-06-25 18:15:00
1:35 PM,98.6,42.8,15,29.84,10.0,SSW,10.4,17.3,N/A,,Clear,200,2013-06-25 18:35:00
1:55 PM,98.6,42.8,15,29.83,10.0,West,9.2,16.1,N/A,,Clear,260,2013-06-25 18:55:00
2:15 PM,100.4,41.0,13,29.83,10.0,SSW,13.8,19.6,N/A,,Clear,210,2013-06-25 19:15:00
2:35 PM,102.2,41.0,12,29.82,10.0,SSW,12.7,18.4,N/A,,Clear,210,2013-06-25 19:35:00
2:55 PM,104.0,35.6,9,29.81,10.0,WSW,10.4,21.9,N/A,,Clear,240,2013-06-25 19:55:00
3:15 PM,105.8,32.0,8,29.80,10.0,WSW,21.9,27.6,N/A,,Clear,250,2013-06-25 20:15:00
3:35 PM,105.8,30.2,7,29.80,10.0,WSW,19.6,32.2,N/A,,Clear,250,2013-06-25 20:35:00
3:55 PM,105.8,32.0,8,29.78,10.0,West,19.6,26.5,N/A,,Unknown,260,2013-06-25 20:55:00
4:15 PM,105.8,30.2,7,29.78,10.0,WSW,18.4,25.3,N/A,,Clear,240,2013-06-25 21:15:00
4:35 PM,104.0,28.4,7,29.78,10.0,West,12.7,19.6,N/A,,Clear,260,2013-06-25 21:35:00
4:55 PM,105.8,24.8,6,29.77,10.0,WSW,23.0,-,N/A,,Clear,240,2013-06-25 21:55:00
5:15 PM,104.0,24.8,6,29.76,10.0,WSW,13.8,-,N/A,,Clear,250,2013-06-25 22:15:00
5:35 PM,105.8,24.8,6,29.76,10.0,WSW,19.6,25.3,N/A,,Clear,240,2013-06-25 22:35:00
5:55 PM,104.0,26.6,7,29.76,10.0,West,15.0,18.4,N/A,,Clear,270,2013-06-25 22:55:00
6:15 PM,104.0,28.4,7,29.76,10.0,West,11.5,-,N/A,,Clear,260,2013-06-25 23:15:00
6:35 PM,104.0,26.6,7,29.75,10.0,West,10.4,16.1,N/A,,Clear,280,2013-06-25 23:35:00
6:55 PM,104.0,28.4,7,29.75,10.0,West,9.2,-,N/A,,Clear,270,2013-06-25 23:55:00
7:15 PM,100.4,30.2,9,29.75,10.0,WNW,6.9,-,N/A,,Clear,290,2013-06-26 00:15:00
7:35 PM,98.6,30.2,9,29.75,10.0,WNW,3.5,-,N/A,,Clear,290,2013-06-26 00:35:00
7:55 PM,98.6,32.0,10,29.75,10.0,Calm,Calm,-,N/A,,Clear,0,2013-06-26 00:55:00
8:15 PM,96.8,33.8,11,29.75,10.0,Calm,Calm,-,N/A,,Clear,0,2013-06-26 01:15:00
8:35 PM,95.0,35.6,12,29.75,10.0,Calm,Calm,-,N/A,,Clear,0,2013-06-26 01:35:00
8:55 PM,95.0,35.6,12,29.75,10.0,ESE,3.5,-,N/A,,Clear,120,2013-06-26 01:55:00
9:15 PM,91.4,32.0,12,29.76,10.0,SE,5.8,-,N/A,,Clear,140,2013-06-26 02:15:00
9:35 PM,87.8,32.0,14,29.76,10.0,SSE,6.9,-,N/A,,Clear,150,2013-06-26 02:35:00
9:55 PM,86.0,32.0,14,29.76,10.0,SSE,6.9,-,N/A,,Clear,150,2013-06-26 02:55:00
10:15 PM,80.6,32.0,17,29.76,10.0,South,11.5,-,N/A,,Clear,170,2013-06-26 03:15:00
10:35 PM,84.2,30.2,14,29.76,10.0,South,8.1,-,N/A,,Clear,170,2013-06-26 03:35:00
10:55 PM,82.4,32.0,16,29.78,10.0,Calm,Calm,-,N/A,,Clear,0,2013-06-26 03:55:00
11:15 PM,82.4,32.0,16,29.78,10.0,SSW,10.4,-,N/A,,Clear,200,2013-06-26 04:15:00
11:35 PM,82.4,33.8,17,29.78,10.0,SSW,12.7,-,N/A,,Clear,200,2013-06-26 04:35:00
11:55 PM,80.6,37.4,21,29.79,10.0,SW,11.5,-,N/A,,Clear,220,2013-06-26 04:55:00